sat.trackr.live / text

‹ back to catalog

STARLINK-35267

NORAD 65592 · 2025-207A

PAYLOAD ACTIVE UNKNOWN

§ Identity

Operator
Country
US
Launch date
2025-09-13
Launch site
AFWTR
Launch vehicle
Mass (kg)
RCS (m²)

Purposes: comms

External: N2YO · Heavens-Above · Gunter

§ Orbital elements

Epoch: 2026-05-25T03:47:39.198048Z

Period
95.64 min
Inclination
97.4463°
Eccentricity
0.0002469
Mean motion
15.05659221 rev/d
Perigee alt
547.8 km
Apogee alt
551.2 km
Semi-major
6,927.6 km
B*
3.5612e-4
RAAN
213.6073°
Arg perigee
162.6657°
Mean anomaly
197.4655°
Rev number
3,975

§ Raw data

STARLINK-352671 65592U 25207A   26145.15809257  .00005085  00000+0  35612-3 0  99952 65592  97.4463 213.6073 0002469 162.6657 197.4655 15.05659221 39755

JSON: /api/v1/satellites/65592 · /tle

For live sub-satellite position, see the globe view (requires WebGL).

§ Visibility from observer

Set your observer location to see the next 7 days of passes ≥ 10°. The values pass through the URL so the page stays shareable.

No JS? Fill the form by hand. The geolocation button needs JavaScript.